OPS 4682 DEB, 18965

Orbit data source: Space-Track

OPS 4682 DEB, 18965 is space debris in LEO originally from a launch on Sat, 03 Apr 1965 UTC launched from the Air Force Western Test Range (AFWTR). Debris objects in space refer to the collection of defunct objects orbiting the Earth. Examples of debris include non-operational satellites, rocket bodies, and fragments generated from explosions, collisions, or faulty payload assembly.

Loading next visibility...
Identifier
18965, 1965-027AN
Orbit
LEO
Country
Flag of USUS
Related business
Manufacturer
Unknown
Mission
Spacecraft
Bus & Motor
Unknown
Mass
Unknown
Launch date (UTC)
1965-04-03 (61 years ago)
Launch vehicle
Unknown
Launch site
Air Force Western Test Range (AFWTR)
Object type
Payload
Rocket body
Debris
Shape & HBR
Unknown shape, 0.1 m
Radar Cross Section
Medium (>0.1 m² and <1 m²)

Expand to show TLE details & history
Last TLE update: 5 days ago

TLE from 5 days ago
0 OPS 4682 DEB
1 18965U 65027AN  26154.40308477  .00001242  00000-0  40943-2 0  9991
2 18965  90.2750  25.6685 0045700 111.9572 303.1093 12.99833430948707
Epoch: 2026-06-03T09:40Z
TLE epoch observation values (Epoch: 2026-06-03T09:40:26.524Z)
Latitude
54.71733°
Longitude
-11.69092°
Altitude
1,252.868 km
Speed
7.243 km/s
True Right ascension
01h 41m 07s
True Declination
54° 33' 56"
Sunlit
Object was in daylight at epoch
Visualization orbit readout
Latitude
Unknown
Longitude
Unknown
Altitude
Unknown
Speed
Unknown
Apparent Right ascension
Unknown
Apparent Declination
Unknown
Sunlit
N/A
Visualization observer readout
Local Sidereal Time
12:54:38
Azimuth
Unknown
Elevation
Unknown
Doppler factor
Unknown
Orbital elements
Apogee altitude
1,294.772 km
Perigee altitude
1,224.961 km
Semi-major axis
7,638.004 km
Eccentricity
0.00457
Inclination
90.275°
RAAN
25.6685°
Arg. of periapsis
111.9572°
True anomaly
302.66928°
Mean anomaly
303.1093°
Eccentric anomaly
302.88943°
Mean motion
3.25142 °/min
Orbital period
110.72 mins
BSTAR
0.0040943
Loading maneuver chart data...
Computing Atmospheric mass density...
Loading historical data...
Loading historical data...
Loading historical data...
Loading historical data...
Loading historical data...
Loading historical data...
Loading historical data...

Documentation

Showing up to 5 results
|